Flag for Australia Weather past 2 weeks in Perth, Western Australia, Australia

Now
52 °F

Clear.


Feels Like: 52 °F
Forecast: 54 / 68 °F
Wind: 1 mph from South

Location: Belmont Perth Airport

Current Time: May 24, 2015 at 9:38:00 PM

Latest Report: May 24, 2015 at 9:00 PM


Visibility: 10 mi

Pressure: 30.15 "Hg

Humidity: 94%

Dew point: 50 °F

Location of PerthLocation

Historic Weather in Perth — Graph

°F

Perth temperature yesterday

Maximum temperature yesterday: 72 °F (at 12:30 PM)
Minimum temperature yesterday: 43 °F (at 5:00 AM)
Average temperature yesterday: 56 °F

Past Weeks' High & Low Weather Summary

 TemperatureHumidityPressure
High79 °F (May 14, 2:30 PM)100% (May 9, 11:00 PM)30.42 "Hg (May 9, 11:00 PM)
Low43 °F (May 23, 5:00 AM)7% (May 16, 1:00 AM)29.62 "Hg (May 17, 12:30 PM)
Average60 °F63%30.17 "Hg
* Reported May 9 8:00 PM — May 24 8:00 PM, Perth, Weather by CustomWeather, © 2015

Note: Actual official high and low records may vary slightly from our data, if they occured in-between our weather recording intervals... More about our weather records

Advertising

Perth weather history for previous 24 hours

 ConditionsComfort  
Time TempWeatherWind HumidityBarometerVisibility
8:00 PM
Sun, May 24
54 °FClear.8 mph88%30.15 "Hg10 mi
7:30 PM59 °FClear.8 mph72%30.15 "Hg10 mi
7:00 PM59 °FClear.8 mph77%30.15 "Hg10 mi
6:30 PM57 °FClear.6 mph82%30.15 "Hg10 mi
6:00 PM59 °FClear.7 mph77%30.12 "Hg10 mi
5:30 PM63 °FClear.7 mph68%30.12 "Hg10 mi
5:00 PM66 °FPassing clouds.9 mph60%30.12 "HgN/A
4:30 PM68 °FPassing clouds.6 mph56%30.12 "HgN/A
4:00 PM68 °FScattered clouds.6 mph56%30.12 "HgN/A
3:30 PM68 °FScattered clouds.6 mph56%30.12 "HgN/A
3:00 PM68 °FScattered clouds.6 mph56%30.12 "HgN/A
2:30 PM70 °FPartly sunny.5 mph53%30.12 "HgN/A
2:00 PM68 °FPartly sunny.6 mph56%30.12 "HgN/A
1:30 PM68 °FPartly sunny.7 mph56%30.12 "HgN/A
1:00 PM68 °FBroken clouds.6 mph56%30.12 "HgN/A
12:30 PM68 °FScattered clouds.3 mph56%30.12 "HgN/A
11:30 AM68 °FPassing clouds.6 mph56%30.15 "HgN/A
10:30 AM63 °FSunny.6 mph73%30.18 "Hg10 mi
9:00 AM59 °FSunny.7 mph82%30.18 "Hg10 mi
8:30 AM57 °FPartly sunny.8 mph82%30.18 "HgN/A
8:00 AM54 °FPartly sunny.8 mph94%30.18 "HgN/A
7:30 AM52 °FPartly sunny.6 mph94%30.18 "HgN/A
7:00 AM50 °FScattered clouds.8 mph94%30.15 "HgN/A
6:30 AM46 °FSunny.9 mph100%30.15 "Hg10 mi
6:00 AM46 °FClear.8 mph93%30.15 "Hg10 mi
5:30 AM46 °FClear.1 mph93%30.15 "Hg10 mi
5:00 AM46 °FClear.No wind93%30.15 "Hg10 mi
4:30 AM46 °FClear.No wind100%30.15 "Hg10 mi
4:00 AM46 °FClear.No wind100%30.15 "Hg10 mi
3:30 AM48 °FClear.2 mph94%30.15 "Hg10 mi
3:00 AM48 °FClear.No wind100%30.12 "Hg10 mi
2:30 AM50 °FClear.1 mph94%30.15 "Hg10 mi
2:00 AM46 °FClear.No wind100%30.12 "Hg10 mi
1:30 AM48 °FClear.5 mph100%30.12 "Hg10 mi
1:00 AM48 °FClear.1 mph100%30.12 "Hg10 mi
12:30 AM50 °FClear.1 mph94%30.12 "Hg10 mi
12:00 AM50 °FClear.No wind94%30.12 "Hg10 mi
11:30 PM
Sat, May 23
50 °FClear.5 mph100%30.12 "Hg10 mi
11:00 PM52 °FClear.2 mph94%30.12 "Hg10 mi
10:30 PM54 °FClear.5 mph94%30.12 "Hg10 mi
10:00 PM54 °FClear.5 mph94%30.12 "Hg10 mi
9:30 PM55 °FClear.No wind94%30.12 "Hg10 mi
9:00 PM57 °FClear.6 mph94%30.12 "Hg10 mi
Weather by CustomWeather, © 2015

See weather overviewHow to use our weather pages